Stations météo

réclame
Mon MeteoGroup
Aachen-Orsbach, Allemagne (10505): Température de l'air & dewpoint: 09.12.2018 12:00:00 - 15.12.2018 12:00:00 (CET)Aachen-Orsbach, Allemagne (10505): Température de l'air 5cm & Température de l'air -5cm: 09.12.2018 12:00:00 - 15.12.2018 12:00:00 (CET)Aachen-Orsbach, Allemagne (10505): Température de l'air -20cm & Température de l'air -100cm: 09.12.2018 12:00:00 - 15.12.2018 12:00:00 (CET)Aachen-Orsbach, Allemagne (10505): Vitesse du vent & gusts: 09.12.2018 12:00:00 - 15.12.2018 12:00:00 (CET)Aachen-Orsbach, Allemagne (10505): Direction du vent: 09.12.2018 12:00:00 - 15.12.2018 12:00:00 (CET)Aachen-Orsbach, Allemagne (10505): reduced air pressure: 09.12.2018 12:00:00 - 15.12.2018 12:00:00 (CET)Aachen-Orsbach, Allemagne (10505): visibility: 09.12.2018 12:00:00 - 15.12.2018 12:00:00 (CET)Aachen-Orsbach, Allemagne (10505): Ensoleillement: 09.12.2018 12:00:00 - 15.12.2018 12:00:00 (CET)Aachen-Orsbach, Allemagne (10505): Quantités de précipitations: 09.12.2018 12:00:00 - 15.12.2018 12:00:00 (CET)
Date & Time tt [°C] td [°C] tt 5cm [°C] tt -5cm [°C] tt -20cm [°C] tt -100cm [°C] ff [km/h] ff [knt] fx [km/h] fx [knt] dd ppp [hPa] vv [km] sd [min] rr [mm]
15.12.2018 12:00:00 -0,8 -6,7 -0,4 0,0 2,2 8,9 16 8 26 14 SE 1024,8 40 0 0,0
15.12.2018 11:00:00 -0,9 -6,8 -0,9 -0,1 2,2 8,9 17 9 24 13 SE 1025,8 30 0 0,0
15.12.2018 10:00:00 -1,1 -6,6 -1,3 -0,1 2,2 8,9 9 5 23 13 SSE 1025,9 30 0 0,0
15.12.2018 09:00:00 -1,3 -7,0 -1,7 -0,1 2,2 8,9 14 8 26 14 SE 1025,8 30 0 0,0
15.12.2018 08:00:00 -1,3 -7,5 -1,7 -0,1 2,2 8,9 14 8 24 13 SSE 1025,7 30 0 0,0
15.12.2018 07:00:00 -1,2 -6,9 -1,7 0,0 2,3 8,9 9 5 26 14 SSE 1025,8 25 0 0,0
15.12.2018 06:00:00 -1,2 -6,3 -1,6 0,0 2,3 8,9 9 5 15 8 SSE 1025,9 25 0 0,0
15.12.2018 05:00:00 -1,0 -7,3 -1,4 0,0 2,3 8,9 9 5 18 10 SE 1025,9 44 0 0,0
15.12.2018 04:00:00 -0,8 -6,8 -1,3 0,0 2,3 8,9 9 5 16 9 SE 1026,1 34 0 0,0
15.12.2018 03:00:00 -0,9 -5,9 -1,4 0,1 2,3 8,9 7 4 15 8 S 1026,5 34 0 0,0
15.12.2018 02:00:00 -0,6 -6,9 -1,3 0,1 2,3 9,0 9 5 21 11 ESE 1026,2 46 0 0,0
15.12.2018 01:00:00 -0,4 -6,8 -1,0 0,1 2,4 9,0 14 7 20 11 SSE 1025,7 45 0 0,0
15.12.2018 00:00:00 -0,4 -6,3 -1,0 0,1 2,4 9,0 13 7 24 13 ESE 1025,3 40 0 0,0
14.12.2018 23:00:00 -0,4 -6,4 -1,0 0,2 2,4 9,0 13 7 22 12 ESE 1025,2 44 0 0,0
14.12.2018 22:00:00 -0,4 -5,8 -1,1 0,2 2,4 9,0 8 5 16 8 ESE 1025,4 34 0 0,0
14.12.2018 21:00:00 -0,3 -5,9 -0,9 0,2 2,4 9,0 10 5 20 11 SSE 1025,7 37 0 0,0
14.12.2018 20:00:00 -0,2 -6,1 -0,7 0,2 2,4 9,0 13 7 25 14 SE 1025,3 35 0 0,0
14.12.2018 19:00:00 -0,2 -5,7 -0,9 0,2 2,4 9,0 11 6 18 10 ESE 1025,0 40 0 0,0
14.12.2018 18:00:00 -0,6 -4,4 -1,1 0,2 2,4 9,0 9 5 19 10 ENE 1024,7 24 0 0,0
14.12.2018 17:00:00 -0,2 -5,9 -0,8 0,2 2,4 9,0 15 8 26 14 E 1024,3 40 0 0,0
14.12.2018 16:00:00 -0,2 -6,1 -0,5 0,2 2,4 9,0 18 10 28 15 E 1023,6 40 0 0,0
14.12.2018 15:00:00 0,1 -5,9 -0,1 0,2 2,4 9,0 18 10 30 16 E 1023,0 40 3 0,0
14.12.2018 14:00:00 0,3 -6,1 0,4 0,2 2,5 9,1 13 7 24 13 E 1022,6 45 0 0,0
14.12.2018 13:00:00 0,2 -5,8 0,5 0,1 2,5 9,1 21 11 31 17 E 1022,6 45 0 0,0
14.12.2018 12:00:00 -0,1 -5,9 0,0 0,1 2,5 9,1 19 10 33 18 E 1022,9 45 0 0,0
14.12.2018 11:00:00 -0,1 -5,8 -0,3 0,1 2,5 9,1 23 13 32 17 E 1023,0 45 0 0,0
14.12.2018 10:00:00 -0,2 -5,8 -0,6 0,0 2,5 9,1 18 10 25 13 E 1022,9 45 0 0,0
14.12.2018 09:00:00 -0,4 -6,0 -1,0 0,0 2,6 9,1 20 11 38 20 E 1022,2 35 0 0,0
14.12.2018 08:00:00 -0,5 -5,5 -1,0 0,1 2,6 9,1 22 12 34 18 E 1021,5 30 0 0,0
14.12.2018 07:00:00 -0,4 -5,1 -0,9 0,1 2,6 9,1 18 10 31 17 E 1021,0 30 0 0,0
14.12.2018 06:00:00 -0,7 -4,4 -1,2 0,1 2,6 9,1 8 5 26 14 ENE 1021,0 30 0 0,0
14.12.2018 05:00:00 -0,4 -5,5 -1,1 0,1 2,7 9,1 17 9 27 15 E 1020,7 39 0 0,0
14.12.2018 04:00:00 -0,6 -5,1 -1,3 0,1 2,7 9,1 18 10 26 14 E 1020,6 36 0 0,0
14.12.2018 03:00:00 -0,5 -4,9 -1,1 0,1 2,7 9,1 16 9 22 12 ENE 1021,0 36 0 0,0
14.12.2018 02:00:00 -0,6 -4,7 -1,7 0,2 2,8 9,1 17 9 24 13 ENE 1020,7 34 0 0,0
14.12.2018 01:00:00 -0,5 -4,9 -2,0 0,2 2,8 9,1 15 8 37 20 ENE 1020,8 39 0 0,0
14.12.2018 00:00:00 -0,3 -5,5 -1,7 0,3 2,8 9,2 22 12 32 17 E 1020,7 41 0 0,0
13.12.2018 23:00:00 0,0 -5,7 -0,9 0,3 2,9 9,2 22 12 35 19 E 1020,7 49 0 0,0
13.12.2018 22:00:00 -0,3 -5,3 -1,3 0,4 2,9 9,2 18 10 28 15 E 1020,9 47 0 0,0
13.12.2018 21:00:00 -0,4 -4,7 -2,0 0,5 2,9 9,2 18 10 27 15 E 1020,4 41 0 0,0
13.12.2018 20:00:00 -0,5 -4,5 -1,6 0,5 3,0 9,2 18 10 23 12 E 1020,3 35 0 0,0
13.12.2018 19:00:00 -1,5 -4,6 -3,8 0,6 3,0 9,2 12 7 17 9 ENE 1020,0 28 0 0,0
13.12.2018 18:00:00 -1,2 -4,5 -3,8 0,7 3,0 9,2 12 6 19 10 ENE 1020,0 27 0 0,0
13.12.2018 17:00:00 -0,1 -4,2 -2,0 0,7 3,0 9,2 16 9 26 14 E 1019,8 31 4 0,0
13.12.2018 16:00:00 0,6 -4,1 0,2 0,6 3,0 9,2 19 11 35 19 E 1019,4 32 60 0,0
13.12.2018 15:00:00 0,7 -3,8 1,1 0,6 3,1 9,2 22 12 33 18 E 1019,3 39 54 0,0
13.12.2018 14:00:00 0,8 -3,3 1,6 0,5 3,1 9,2 22 12 47 25 E 1019,5 37 51 0,0
13.12.2018 13:00:00 0,4 -3,8 0,2 0,5 3,1 9,2 29 16 45 25 E 1019,8 32 48 0,0
13.12.2018 12:00:00 0,1 -3,2 -0,6 0,4 3,2 9,2 26 14 41 22 E 1020,4 34 45 0,0
13.12.2018 11:00:00 0,0 -2,7 -0,2 0,4 3,2 9,2 28 15 39 21 E 1020,7 32 60 0,0
13.12.2018 10:00:00 -0,7 -2,2 -1,2 0,4 3,3 9,2 22 12 27 15 E 1020,9 28 41 0,0
13.12.2018 09:00:00 -1,2 -2,1 -2,6 0,5 3,4 9,2 17 9 24 13 E 1021,0 18 0 0,0
13.12.2018 08:00:00 -1,3 -2,0 -2,9 0,6 3,4 9,3 15 8 19 10 E 1020,6 10 0 0,0
13.12.2018 07:00:00 -0,6 -1,5 -1,8 0,7 3,5 9,3 15 8 20 11 E 1020,8 15 0 0,0
13.12.2018 06:00:00 -0,6 -1,6 -2,5 0,8 3,5 9,3 14 7 19 10 E 1021,2 18 0 0,0
13.12.2018 05:00:00 -0,3 -1,4 -1,6 0,8 3,6 9,3 16 9 22 12 E 1021,4 21 0 0,0
13.12.2018 04:00:00 -0,4 -1,6 -2,0 0,9 3,6 9,3 16 9 22 12 E 1021,9 21 0 0,0
13.12.2018 03:00:00 0,1 -1,6 -1,5 1,0 3,7 9,3 19 10 26 14 E 1022,1 28 0 0,0
13.12.2018 02:00:00 0,4 -1,6 -1,3 1,0 3,7 9,3 22 12 28 15 E 1022,4 32 0 0,0
13.12.2018 01:00:00 -0,1 -1,8 -1,6 1,1 3,8 9,3 15 8 22 12 E 1023,1 34 0 0,0
13.12.2018 00:00:00 0,2 -1,5 -0,7 1,1 3,8 9,3 11 6 18 10 ENE 1023,7 29 0 0,0
12.12.2018 23:00:00 -0,2 -1,5 -1,8 1,2 3,9 9,3 15 8 18 10 E 1024,1 23 0 0,0
12.12.2018 22:00:00 0,3 -1,1 -1,3 1,3 4,0 9,3 16 9 21 11 E 1024,2 20 0 0,0
12.12.2018 21:00:00 0,6 -0,6 -0,2 1,3 4,0 9,3 11 6 15 8 E 1024,3 16 0 0,0
12.12.2018 20:00:00 -0,2 -1,1 -2,5 1,4 4,1 9,3 10 5 11 6 ENE 1024,6 9 0 0,0
12.12.2018 19:00:00 0,5 -0,9 -2,6 1,5 4,2 9,3 8 4 14 7 ENE 1024,6 17 0 0,0
12.12.2018 18:00:00 1,5 -0,8 -0,8 1,7 4,2 9,3 10 5 13 7 NE 1024,7 25 0 0,0
12.12.2018 17:00:00 1,0 -0,9 -1,6 2,6 4,1 9,3 8 4 16 8 ENE 1024,6 22 0 0,0
12.12.2018 16:00:00 2,6 0,3 2,3 3,3 4,1 9,3 10 5 21 11 ENE 1024,6 20 0 0,0
12.12.2018 15:00:00 2,7 0,6 2,8 3,4 4,0 9,3 13 7 19 10 ENE 1024,8 13 0 0,0
12.12.2018 14:00:00 2,6 1,6 3,4 3,2 3,9 9,3 12 7 18 10 ENE 1025,3 3,8 8 0,0
12.12.2018 13:00:00 2,1 1,4 3,2 1,7 4,0 9,3 10 5 15 8 ENE 1025,6 2,2 1 0,0
12.12.2018 12:00:00 1,8 1,4 2,0 1,2 4,0 9,3 8 4 10 5 ENE 1026,2 0,7 0 0,0
12.12.2018 11:00:00 1,5 1,1 1,7 1,2 4,1 9,4 8 4 10 5 ENE 1026,3 0,3 0 0,0
12.12.2018 10:00:00 1,2 0,7 0,2 1,3 4,2 9,4 0 0 4 2 N 1026,3 2,7 0 0,0
12.12.2018 09:00:00 1,0 0,6 0,1 1,3 4,3 9,4 3 2 6 4 WNW 1026,0 2,4 0 0,0
12.12.2018 08:00:00 0,4 -0,1 -0,3 1,3 4,3 9,4 6 3 7 4 W 1025,9 1,4 0 0,0
12.12.2018 07:00:00 1,1 0,6 -0,6 1,3 4,4 9,4 4 2 6 3 W 1025,4 3,9 0 0,0
12.12.2018 06:00:00 0,4 0,0 -3,0 1,4 4,5 9,4 2 1 8 4 WSW 1025,4 3,4 0 0,0
12.12.2018 05:00:00 0,5 -0,1 -3,1 1,5 4,6 9,4 6 3 9 5 SW 1025,5 6 0 0,0
12.12.2018 04:00:00 0,4 -0,2 -3,3 1,5 4,8 9,4 7 4 11 6 SSW 1025,6 6 0 0,0
12.12.2018 03:00:00 1,1 0,5 -2,6 1,6 4,9 9,4 4 2 10 5 WSW 1025,5 8 0 0,0
12.12.2018 02:00:00 0,8 0,1 -1,8 1,7 5,0 9,4 7 4 11 6 SW 1025,4 6 0 0,0
12.12.2018 01:00:00 1,3 0,4 -1,2 1,9 5,1 9,4 7 4 9 5 SW 1025,5 11 0 0,0
12.12.2018 00:00:00 2,1 1,1 -0,7 2,7 5,2 9,4 8 4 9 5 WSW 1025,3 12 0 0,0
11.12.2018 23:00:00 2,6 1,3 1,3 3,2 5,2 9,4 7 4 9 5 WSW 1025,3 19 0 0,0
11.12.2018 22:00:00 2,9 2,1 2,1 3,6 5,3 9,4 5 3 9 5 WSW 1025,2 11 0 0,0
11.12.2018 21:00:00 3,0 2,0 2,5 3,7 5,3 9,4 7 4 18 10 W 1025,3 14 0 0,0
11.12.2018 20:00:00 3,2 2,2 2,8 3,8 5,3 9,4 6 3 24 13 WNW 1025,2 22 0 0,3
11.12.2018 19:00:00 3,3 1,5 2,8 3,9 5,4 9,4 9 5 13 7 W 1024,9 31 0 0,0
11.12.2018 18:00:00 3,5 1,2 2,9 4,3 5,3 9,4 10 5 15 8 W 1024,7 38 0 0,0
11.12.2018 17:00:00 4,2 1,6 3,8 4,8 5,3 9,4 9 5 15 8 W 1024,5 39 0 0,0
11.12.2018 16:00:00 4,5 1,7 4,3 5,3 5,1 9,4 11 6 17 9 W 1024,4 38 0 0,0
11.12.2018 15:00:00 4,7 1,6 4,8 5,9 5,0 9,4 14 8 21 12 W 1024,5 38 33 0,0
11.12.2018 14:00:00 4,9 1,5 5,5 5,3 4,9 9,4 14 7 22 12 W 1024,8 32 26 0,0
11.12.2018 13:00:00 4,2 1,4 4,2 4,5 4,8 9,4 13 7 18 10 W 1025,1 32 1 0,0
11.12.2018 12:00:00 3,6 1,3 3,5 4,1 4,8 9,4 16 9 26 14 W 1025,5 23 24 0,0
11.12.2018 11:00:00 3,0 0,9 2,6 3,0 4,8 9,4 16 9 22 12 WSW 1025,4 33 6 0,0
11.12.2018 10:00:00 2,5 0,8 2,1 2,4 4,9 9,4 11 6 27 14 WSW 1025,3 32 0 0,0
11.12.2018 09:00:00 2,2 0,6 1,6 2,4 4,9 9,4 17 9 29 16 W 1025,2 27 0 0,1
11.12.2018 08:00:00 2,1 0,7 1,4 2,4 5,0 9,4 14 7 22 12 W 1025,1 22 0 0,0
11.12.2018 07:00:00 2,1 0,9 1,4 2,7 5,0 9,4 13 7 18 10 WSW 1025,1 21 0 0,0
11.12.2018 06:00:00 2,6 1,2 2,1 2,8 5,1 9,4 10 5 24 13 W 1025,2 21 0 0,0
11.12.2018 05:00:00 2,4 1,5 2,0 2,7 5,1 9,4 16 9 20 11 WSW 1025,0 12 0 0,0
11.12.2018 04:00:00 2,3 1,4 1,8 2,9 5,2 9,4 14 8 22 12 W 1025,3 15 0 0,3
11.12.2018 03:00:00 2,3 1,5 2,1 2,9 5,2 9,4 16 9 23 13 W 1025,4 12 0 0,0
11.12.2018 02:00:00 2,4 1,6 2,1 2,8 5,3 9,4 17 9 24 13 W 1025,4 16 0 0,0
11.12.2018 01:00:00 2,4 1,5 2,1 2,6 5,4 9,4 19 10 26 14 W 1025,4 16 0 0,0
11.12.2018 00:00:00 2,6 1,5 2,0 2,5 5,5 9,4 15 8 23 12 WSW 1025,3 22 0 0,0
10.12.2018 23:00:00 2,4 1,6 1,7 2,4 5,7 9,4 17 9 22 12 WSW 1025,3 16 0 0,0
10.12.2018 22:00:00 2,1 1,4 1,2 2,4 5,8 9,4 18 10 26 14 WSW 1025,4 17 0 0,0
10.12.2018 21:00:00 2,0 1,4 0,9 2,8 5,9 9,4 16 9 26 14 WSW 1025,2 17 0 0,0
10.12.2018 20:00:00 2,7 1,7 1,8 3,3 6,0 9,4 19 10 25 14 W 1025,0 28 0 0,0
10.12.2018 19:00:00 3,1 1,9 2,0 3,9 6,1 9,4 19 11 29 16 W 1024,8 32 0 0,0
10.12.2018 18:00:00 3,8 2,6 3,2 4,6 6,1 9,4 23 12 37 20 W 1024,3 39 0 0,1
10.12.2018 17:00:00 4,4 2,8 4,2 4,7 6,1 9,4 22 12 34 18 W 1023,8 46 0 0,0
10.12.2018 16:00:00 3,9 2,9 3,7 4,9 6,1 9,4 21 11 49 27 W 1023,4 42 0 1,4
10.12.2018 15:00:00 5,6 2,2 4,9 5,4 6,1 9,4 30 16 44 24 W 1022,5 28 5 0,0
10.12.2018 14:00:00 6,0 3,1 6,8 5,3 6,0 9,4 26 14 39 21 W 1022,5 37 9 0,0
10.12.2018 13:00:00 5,3 2,4 5,2 5,2 6,0 9,4 26 14 35 19 W 1022,8 38 5 0,0
10.12.2018 12:00:00 4,7 2,8 4,8 4,8 6,0 9,4 24 13 32 17 W 1023,3 30 10 0,0
10.12.2018 11:00:00 3,8 2,3 3,9 4,2 6,1 9,4 20 11 28 15 WSW 1023,3 36 12 0,0
10.12.2018 10:00:00 3,2 2,1 2,9 4,1 6,2 9,4 21 12 29 16 WSW 1023,0 26 0 0,0
10.12.2018 09:00:00 3,1 2,1 3,1 4,0 6,2 9,4 22 12 35 19 W 1022,6 25 0 0,0
10.12.2018 08:00:00 3,5 2,4 3,2 4,1 6,3 9,4 24 13 44 24 W 1021,9 17 0 0,8
10.12.2018 07:00:00 3,5 2,3 3,3 4,3 6,4 9,4 23 12 35 19 W 1021,8 16 0 0,6
10.12.2018 06:00:00 3,7 2,2 3,3 4,4 6,5 9,4 19 11 33 18 W 1020,9 34 0 0,0
10.12.2018 05:00:00 3,9 2,5 3,7 4,3 6,5 9,4 22 12 33 18 W 1020,3 26 0 0,0
10.12.2018 04:00:00 4,0 2,2 3,5 4,4 6,6 9,4 22 12 35 19 W 1020,0 40 0 0,0
10.12.2018 03:00:00 4,0 1,9 3,7 4,6 6,7 9,4 24 13 36 19 W 1019,7 60 0 0,0
10.12.2018 02:00:00 4,2 2,3 3,8 4,8 6,8 9,4 24 13 37 20 W 1018,7 48 0 0,0
10.12.2018 01:00:00 4,4 2,6 4,0 5,1 6,8 9,4 26 14 40 22 W 1018,0 51 0 0,0
10.12.2018 00:00:00 5,1 3,3 4,8 5,3 6,9 9,4 27 14 38 20 W 1017,0 40 0 0,0
09.12.2018 23:00:00 5,3 3,6 5,0 5,5 6,9 9,4 26 14 35 19 W 1016,1 38 0 0,0
09.12.2018 22:00:00 5,3 3,7 4,9 5,6 7,0 9,4 28 15 44 24 WNW 1015,1 17 0 0,0
09.12.2018 21:00:00 5,5 3,9 5,0 5,6 7,0 9,4 29 15 46 25 W 1014,1 15 0 0,1
09.12.2018 20:00:00 5,9 4,2 5,4 5,7 7,0 9,4 29 16 44 24 W 1012,8 30 0 0,0
09.12.2018 19:00:00 5,9 4,6 5,4 5,7 7,1 9,4 31 17 44 24 WNW 1011,3 10 0 0,1
09.12.2018 18:00:00 5,3 3,6 4,6 6,1 7,1 9,4 31 17 47 25 W 1009,7 58 0 0,2
09.12.2018 17:00:00 6,5 4,7 5,8 6,2 7,1 9,4 32 17 48 26 W 1007,9 46 0 0,0
09.12.2018 16:00:00 6,8 5,6 6,3 6,7 7,1 9,4 24 13 40 22 W 1006,1 13 0 0,1
09.12.2018 15:00:00 7,0 5,6 6,8 6,6 7,1 9,4 26 14 48 26 WNW 1004,5 43 0 0,9
09.12.2018 14:00:00 6,7 5,8 6,8 6,2 7,1 9,3 29 15 39 21 W 1002,8 41 0 0,3
09.12.2018 13:00:00 5,5 4,9 5,3 5,6 7,2 9,3 27 14 37 20 W 1002,3 29 0 3,9
09.12.2018 12:00:00 3,8 3,2 3,7 5,9 7,3 9,4 21 11 54 29 WNW 1001,7 6 0 5,6

tt = Température de l'air
td = dewpoint
tt 5cm = Température de l'air 5cm
tt -5cm = Température de l'air -5cm
tt -20cm = Température de l'air -20cm
tt -100cm = Température de l'air -100cm
ff = Vitesse du vent
fx = gusts
dd = Direction du vent
ppp = reduced air pressure
vv = visibility
sd = Ensoleillement
rr = Quantités de précipitations

stations d'obs. à proximité